Regional Weather Roundup
Issued by NWS Sioux Falls, SD

Home | Current Version | Previous Version | Graphics & Text | Print | Product List | Glossary Off
Versions: 1 2 3 4 5 6 7 8 9 10 11 12 13 14 15 16 17 18 19 20 21 22 23 24 25 26 27 28 29 30 31 32 33 34 35 36 37 38 39 40 41 42 43 44 45 46 47 48 49 50

000
ASUS43 KFSD 102102
RWRFSD

WEATHER ROUNDUP FOR SE SOUTH DAKOTA/SW MINNESOTA/NW IOWA
NATIONAL WEATHER SERVICE SIOUX FALLS SD
300 PM CST SUN DEC 10 2017

NOTE: "FAIR" INDICATES FEW OR NO CLOUDS BELOW 12,000 FEET WITH NO
SIGNIFICANT WEATHER AND OR OBSTRUCTIONS TO VISIBILITY.


SDZ038>040-050-052>070-102200-
SOUTHEAST SOUTH DAKOTA

CITY           SKY/WX    TMP DP  RH WIND       PRES   REMARKS
BROOKINGS      SUNNY     40  29  64 W14       30.02F
CHAMBERLAIN    SUNNY     55  24  30 NW8       30.07F
HURON          SUNNY     46  29  51 NW9       30.05S
MADISON        FAIR      39  30  70 W14       30.04S
MITCHELL       SUNNY     48  28  46 W8        30.07F
SIOUX FALLS    MOSUNNY   43  30  60 W9        30.05F
WINNER         FAIR      61  17  18 NW13      30.08F
YANKTON        SUNNY     48  25  40 NW14      30.08F
$$

MNZ071-072-080-081-089-090-097-098-102200-
SOUTHWEST MINNESOTA

CITY           SKY/WX    TMP DP  RH WIND       PRES   REMARKS
FAIRMONT       SUNNY     35  24  64 NW15      30.03R WCI  25
JACKSON        SUNNY     37  27  65 MISG      30.03S
LUVERNE        MOSUNNY   41  28  60 NW8       30.03F
MARSHALL       PTSUNNY   38  25  59 N10       30.02F
MONTEVIDEO     MOSUNNY   37  25  60 N8        30.03S
PIPESTONE      CLOUDY    37  27  65 NW9       30.00F
REDWOOD FALLS  MOSUNNY   35  22  58 NW8       30.02F WCI  29
TRACY          MOSUNNY   38  28  67 NW7       30.00F
WINDOM         SUNNY     37  21  52 NW12      30.02S
WORTHINGTON    PTSUNNY   39  27  62 W14       30.02F
$$

IAZ001>003-012>014-020>022-031-032-NEZ013-014-SDZ071-102200-
NORTHWEST IOWA

CITY           SKY/WX    TMP DP  RH WIND       PRES   REMARKS
DENISON        SUNNY     48  27  43 NW16G22   30.09R
ESTHERVILLE    SUNNY     38  27  64 NW14      30.03R
LE MARS        SUNNY     45  30  57 W10       30.07F
ORANGE CITY    SUNNY     45  32  61 NW10      30.05F
SHELDON        CLOUDY    43  30  61 NW12      30.02F
SIOUX CITY     SUNNY     48  27  44 NW17      30.08S
SPENCER        SUNNY     42  28  57 W14       30.04F
STORM LAKE     SUNNY     43  27  52 NW16      30.05R
$$

ABBREVIATIONS USED IN REMARKS
   TC - TEMPERATURE IN CELSIUS
  WCI - WIND CHILL INDEX
   HX - HEAT INDEX
  VSB - VISIBILITY





USA.gov is the U.S. government's official web portal to all federal, state and local government web resources and services.